User: anonymous   Login
Location: Unspecified
(0.0000°N, 0.0000°E)
Time: 23:08:24
(UTC+00:00)
Language:

YUBILEINY - Orbit

View from above orbital plane
View from above orbital plane
View from above satellite
View from above satellite

Ground track
Ground track

The orbit data is extracted from the following two-line orbital elements,

1 32953U 08025A   24051.56981538  .00000022  00000-0  87599-4 0  9990
2 32953  82.5068 162.6348 0018837   4.8052 355.3205 12.43135839714373
Epoch (UTC): 20 February 2024 13:40:32
Eccentricity: 0.0018837
inclination: 82.5068°
perigee height: 1478 km
apogee height: 1508 km
right ascension of ascending node: 162.6348°
argument of perigee: 4.8052°
revolutions per day: 12.43135839
mean anomaly at epoch: 355.3205°
orbit number at epoch: 71437

The dashed part of the orbit path shows where the satellite is in the earth's shadow,  

DLR